TRA38C LFMN-EHRD

Flight info

Callsign TRA38C
Flight time 1h 29m
Altitude 34000
Route IRMAR DCT KINES DCT VANAS DCT MOBLO DCT UBIMA DCT GILIR/N0425F280 DCT PENDU DCT IXILU DCT EPL DCT ROUSY DCT REMBA M624 BUB Y28 HELEN
Aircraft B738/M-SDE2E3FGHIRWXY/LB1

Departure

Time 2026-05-05 06:09
Airport Nice-Côte d'Azur Airport (LFMN)

Arrival

Time 2026-05-05 07:39
Airport Rotterdam The Hague Airport (EHRD)
Time Latitude Longitude Altitude Speed Heading
2026-05-05 05:49 43.66419 7.21393 20 ft 0 kts 358°
2026-05-05 05:58 43.66404 7.21394 20 ft 3 kts 352°
2026-05-05 05:59 43.66387 7.21398 20 ft 0 kts 341°
2026-05-05 05:59 43.66388 7.21398 20 ft 0 kts 341°
2026-05-05 06:00 43.66382 7.21401 20 ft 2 kts 341°
2026-05-05 06:00 43.66372 7.21406 20 ft 3 kts 340°
2026-05-05 06:00 43.66352 7.21416 20 ft 0 kts 340°
2026-05-05 06:01 43.66353 7.21415 20 ft 0 kts 340°
2026-05-05 06:01 43.66370 7.21426 20 ft 5 kts 64°
2026-05-05 06:01 43.66362 7.21469 20 ft 9 kts 110°
2026-05-05 06:01 43.66320 7.21574 20 ft 15 kts 153°
2026-05-05 06:02 43.66221 7.21512 20 ft 19 kts 221°
2026-05-05 06:02 43.66113 7.21367 20 ft 24 kts 223°
2026-05-05 06:02 43.66041 7.21278 20 ft 6 kts 227°
2026-05-05 06:02 43.66008 7.21228 20 ft 3 kts 227°
2026-05-05 06:03 43.66006 7.21224 20 ft 0 kts 227°
2026-05-05 06:03 43.66005 7.21224 20 ft 1 kts 227°
2026-05-05 06:03 43.65990 7.21200 20 ft 6 kts 227°
2026-05-05 06:04 43.65947 7.21139 20 ft 11 kts 225°
2026-05-05 06:04 43.65879 7.21051 20 ft 15 kts 223°
2026-05-05 06:04 43.65797 7.20939 20 ft 18 kts 226°
2026-05-05 06:04 43.65702 7.20802 20 ft 21 kts 225°
2026-05-05 06:05 43.65594 7.20701 20 ft 19 kts 186°
2026-05-05 06:05 43.65456 7.20713 20 ft 21 kts 173°
2026-05-05 06:05 43.65305 7.20731 20 ft 23 kts 189°
2026-05-05 06:05 43.65174 7.20613 20 ft 24 kts 225°
2026-05-05 06:06 43.65054 7.20449 20 ft 25 kts 224°
2026-05-05 06:06 43.64940 7.20292 20 ft 20 kts 223°
2026-05-05 06:06 43.64832 7.20252 20 ft 17 kts 158°
2026-05-05 06:06 43.64770 7.20369 20 ft 14 kts 65°
2026-05-05 06:07 43.64836 7.20473 20 ft 12 kts 45°
2026-05-05 06:07 43.64863 7.20510 20 ft 0 kts 43°
2026-05-05 06:08 43.64900 7.20558 20 ft 17 kts 43°
2026-05-05 06:08 43.64933 7.20601 20 ft 0 kts 43°
2026-05-05 06:08 43.64934 7.20602 20 ft 2 kts 43°
2026-05-05 06:09 43.65001 7.20694 20 ft 44 kts 47°
2026-05-05 06:09 43.65411 7.21263 20 ft 123 kts 44°
2026-05-05 06:09 43.66138 7.22265 390 ft 159 kts 45°
2026-05-05 06:09 43.66872 7.23420 1374 ft 162 kts 56°
2026-05-05 06:10 43.67116 7.24933 2269 ft 166 kts 94°
2026-05-05 06:10 43.66635 7.26384 3013 ft 171 kts 127°
2026-05-05 06:10 43.65758 7.27492 3818 ft 168 kts 141°
2026-05-05 06:10 43.64841 7.28496 4590 ft 173 kts 141°
2026-05-05 06:11 43.63860 7.29547 5149 ft 184 kts 141°
2026-05-05 06:11 43.62811 7.30669 5724 ft 199 kts 141°
2026-05-05 06:11 43.61578 7.31796 6065 ft 228 kts 156°
2026-05-05 06:11 43.60023 7.32068 6769 ft 236 kts 186°
2026-05-05 06:12 43.58517 7.31269 7681 ft 238 kts 212°
2026-05-05 06:12 43.57252 7.29808 8559 ft 240 kts 218°
2026-05-05 06:12 43.55933 7.28391 9473 ft 240 kts 220°
2026-05-05 06:12 43.55006 7.26494 10415 ft 242 kts 248°
2026-05-05 06:13 43.54861 7.24194 11364 ft 245 kts 276°
2026-05-05 06:13 43.55368 7.21967 12318 ft 246 kts 291°
2026-05-05 06:13 43.56336 7.19993 13087 ft 256 kts 305°
2026-05-05 06:13 43.57535 7.18142 13801 ft 261 kts 307°
2026-05-05 06:14 43.58774 7.16252 14546 ft 264 kts 306°
2026-05-05 06:14 43.59995 7.14392 15245 ft 270 kts 310°
2026-05-05 06:14 43.61487 7.12759 15958 ft 278 kts 321°
2026-05-05 06:14 43.63210 7.11461 16571 ft 290 kts 333°
2026-05-05 06:15 43.65166 7.10533 17030 ft 306 kts 339°
2026-05-05 06:15 43.67292 7.09705 17299 ft 327 kts 340°
2026-05-05 06:15 43.69539 7.08822 17558 ft 346 kts 340°
2026-05-05 06:15 43.71916 7.07846 17799 ft 365 kts 339°
2026-05-05 06:16 43.74410 7.06785 18031 ft 384 kts 339°
2026-05-05 06:16 43.77005 7.05660 18363 ft 397 kts 339°
2026-05-05 06:16 43.79632 7.04507 18917 ft 403 kts 339°
2026-05-05 06:16 43.82319 7.03321 19527 ft 408 kts 339°
2026-05-05 06:17 43.85039 7.02130 20146 ft 412 kts 339°
2026-05-05 06:17 43.87784 7.00927 20721 ft 417 kts 339°
2026-05-05 06:17 43.90565 6.99696 21286 ft 421 kts 339°
2026-05-05 06:17 43.93368 6.98449 21849 ft 424 kts 339°
2026-05-05 06:18 43.96189 6.97189 22368 ft 429 kts 339°
2026-05-05 06:18 43.99046 6.95911 22898 ft 433 kts 339°
2026-05-05 06:18 44.01886 6.94637 23373 ft 437 kts 339°
2026-05-05 06:18 44.04793 6.93334 23832 ft 442 kts 339°
2026-05-05 06:19 44.07721 6.92020 24342 ft 445 kts 340°
2026-05-05 06:19 44.10685 6.90689 24890 ft 446 kts 340°
2026-05-05 06:19 44.13678 6.89470 25378 ft 450 kts 343°
2026-05-05 06:19 44.16753 6.88626 25852 ft 454 kts 349°
2026-05-05 06:20 44.19904 6.88075 26294 ft 458 kts 352°
2026-05-05 06:20 44.23085 6.87639 26728 ft 461 kts 352°
2026-05-05 06:20 44.26290 6.87186 27162 ft 463 kts 352°
2026-05-05 06:20 44.29457 6.86722 27576 ft 465 kts 352°
2026-05-05 06:21 44.32672 6.86243 27989 ft 467 kts 352°
2026-05-05 06:21 44.35910 6.85755 28387 ft 469 kts 352°
2026-05-05 06:21 44.39166 6.85260 28777 ft 471 kts 352°
2026-05-05 06:21 44.42441 6.84761 29149 ft 473 kts 352°
2026-05-05 06:22 44.45698 6.84264 29683 ft 471 kts 351°
2026-05-05 06:22 44.48956 6.83770 30217 ft 468 kts 352°
2026-05-05 06:22 44.52196 6.83282 30685 ft 467 kts 351°
2026-05-05 06:22 44.55422 6.82791 31168 ft 466 kts 351°
2026-05-05 06:23 44.58634 6.82298 31639 ft 464 kts 351°
2026-05-05 06:23 44.61838 6.81806 32106 ft 462 kts 351°
2026-05-05 06:23 44.64973 6.81322 32554 ft 461 kts 351°
2026-05-05 06:23 44.68170 6.80829 33012 ft 459 kts 351°
2026-05-05 06:24 44.71341 6.80339 33435 ft 458 kts 351°
2026-05-05 06:24 44.74499 6.79851 33840 ft 457 kts 351°
2026-05-05 06:24 44.80894 6.78877 33960 ft 469 kts 352°
2026-05-05 06:25 44.87513 6.78407 33973 ft 483 kts 355°
2026-05-05 06:25 44.94302 6.78038 33973 ft 490 kts 355°
2026-05-05 06:26 45.01051 6.77614 33972 ft 489 kts 355°
2026-05-05 06:26 45.07848 6.77174 33964 ft 489 kts 355°
2026-05-05 06:27 45.18058 6.76500 33972 ft 490 kts 355°
2026-05-05 06:28 45.24831 6.76050 33980 ft 491 kts 355°
2026-05-05 06:28 45.31649 6.75597 33988 ft 491 kts 355°
2026-05-05 06:29 45.38478 6.75159 33989 ft 491 kts 355°
2026-05-05 06:29 45.45308 6.74725 33986 ft 492 kts 355°
2026-05-05 06:30 45.52119 6.74269 33986 ft 492 kts 355°
2026-05-05 06:30 45.58960 6.73805 33986 ft 493 kts 355°
2026-05-05 06:31 45.65823 6.73338 33982 ft 494 kts 355°
2026-05-05 06:31 45.72693 6.72868 33973 ft 494 kts 355°
2026-05-05 06:32 45.79560 6.72399 33966 ft 494 kts 355°
2026-05-05 06:32 45.86399 6.71929 33963 ft 496 kts 355°
2026-05-05 06:33 45.93281 6.71451 33960 ft 495 kts 355°
2026-05-05 06:33 46.00172 6.70970 33952 ft 496 kts 355°
2026-05-05 06:34 46.07075 6.70487 33948 ft 497 kts 355°
2026-05-05 06:34 46.13857 6.69248 33945 ft 493 kts 345°
2026-05-05 06:35 46.20408 6.66468 33941 ft 490 kts 337°
2026-05-05 06:35 46.26853 6.63220 33931 ft 491 kts 338°
2026-05-05 06:36 46.33322 6.60021 33924 ft 491 kts 338°
2026-05-05 06:36 46.39792 6.56837 33923 ft 491 kts 338°
2026-05-05 06:37 46.46220 6.53683 33922 ft 491 kts 338°
2026-05-05 06:37 46.52693 6.50531 33922 ft 491 kts 338°
2026-05-05 06:38 46.59162 6.47353 33922 ft 491 kts 338°
2026-05-05 06:38 46.65629 6.44163 33923 ft 491 kts 338°
2026-05-05 06:39 46.72051 6.40985 33922 ft 490 kts 337°
2026-05-05 06:39 46.78506 6.37801 33921 ft 490 kts 337°
2026-05-05 06:40 46.84947 6.34604 33927 ft 490 kts 337°
2026-05-05 06:40 46.91393 6.31382 33924 ft 489 kts 337°
2026-05-05 06:41 46.97795 6.28172 33921 ft 489 kts 336°
2026-05-05 06:41 47.04225 6.24945 33920 ft 489 kts 336°
2026-05-05 06:42 47.10468 6.21131 33914 ft 483 kts 329°
2026-05-05 06:42 47.16452 6.16698 33906 ft 483 kts 328°
2026-05-05 06:43 47.22471 6.12309 33903 ft 483 kts 328°
2026-05-05 06:43 47.28454 6.07973 33902 ft 483 kts 328°
2026-05-05 06:44 47.34750 6.04370 33903 ft 492 kts 341°
2026-05-05 06:44 47.41606 6.03240 33905 ft 501 kts 356°
2026-05-05 06:45 47.48599 6.03515 33904 ft 502 kts 358°
2026-05-05 06:45 47.55592 6.03713 33901 ft 503 kts 357°
2026-05-05 06:46 47.62542 6.03863 33903 ft 503 kts 357°
2026-05-05 06:46 47.69545 6.04008 33903 ft 503 kts 356°
2026-05-05 06:47 47.76560 6.04169 33904 ft 504 kts 357°
2026-05-05 06:47 47.83567 6.04393 33904 ft 504 kts 357°
2026-05-05 06:48 47.90541 6.04611 33904 ft 505 kts 357°
2026-05-05 06:48 47.97556 6.04830 33904 ft 505 kts 357°
2026-05-05 06:49 48.04582 6.05046 33904 ft 505 kts 357°
2026-05-05 06:49 48.11593 6.05264 33905 ft 505 kts 357°
2026-05-05 06:50 48.18617 6.05485 33905 ft 505 kts 357°
2026-05-05 06:50 48.25586 6.05704 33904 ft 504 kts 357°
2026-05-05 06:51 48.32589 6.05924 33905 ft 503 kts 357°
2026-05-05 06:51 48.39551 6.06253 33905 ft 503 kts 358°
2026-05-05 06:52 48.46554 6.06596 33905 ft 503 kts 358°
2026-05-05 06:52 48.53498 6.06931 33905 ft 502 kts 358°
2026-05-05 06:53 48.60473 6.07266 33906 ft 501 kts 358°
2026-05-05 06:53 48.67430 6.07598 33906 ft 500 kts 358°
2026-05-05 06:54 48.74384 6.07930 33907 ft 499 kts 358°
2026-05-05 06:54 48.81265 6.08260 33906 ft 498 kts 358°
2026-05-05 06:55 48.88192 6.08594 33905 ft 497 kts 358°
2026-05-05 06:55 48.95104 6.08929 33905 ft 497 kts 358°
2026-05-05 06:56 49.02000 6.09263 33905 ft 496 kts 358°
2026-05-05 06:56 49.08843 6.09596 33904 ft 495 kts 358°
2026-05-05 06:57 49.15712 6.09931 33901 ft 494 kts 358°
2026-05-05 06:57 49.22575 6.10265 33898 ft 493 kts 358°
2026-05-05 06:58 49.29443 6.10602 33893 ft 493 kts 358°
2026-05-05 06:58 49.36290 6.10940 33888 ft 492 kts 358°
2026-05-05 06:59 49.43136 6.11195 33879 ft 489 kts 353°
2026-05-05 06:59 49.49603 6.08991 33879 ft 475 kts 332°
2026-05-05 07:00 49.55332 6.04114 33879 ft 468 kts 322°
2026-05-05 07:00 49.60758 5.98598 33879 ft 468 kts 321°
2026-05-05 07:01 49.66207 5.93107 33879 ft 469 kts 322°
2026-05-05 07:01 49.71644 5.87655 33880 ft 468 kts 322°
2026-05-05 07:02 49.77114 5.82181 33882 ft 468 kts 322°
2026-05-05 07:02 49.82597 5.76771 33883 ft 468 kts 322°
2026-05-05 07:03 49.88075 5.71310 33885 ft 468 kts 322°
2026-05-05 07:03 49.93499 5.65873 33888 ft 468 kts 322°
2026-05-05 07:04 49.98963 5.60373 33890 ft 468 kts 322°
2026-05-05 07:04 50.04421 5.54864 33891 ft 467 kts 322°
2026-05-05 07:05 50.09865 5.49351 33893 ft 467 kts 322°
2026-05-05 07:05 50.15303 5.43831 33892 ft 466 kts 322°
2026-05-05 07:06 50.20729 5.38306 33898 ft 466 kts 322°
2026-05-05 07:06 50.26125 5.32797 33900 ft 466 kts 322°
2026-05-05 07:07 50.31535 5.27259 33900 ft 463 kts 322°
2026-05-05 07:07 50.34187 5.24538 33899 ft 449 kts 322°
2026-05-05 07:07 50.36768 5.21886 33900 ft 439 kts 322°
2026-05-05 07:08 50.41803 5.16745 33888 ft 432 kts 322°
2026-05-05 07:08 50.44307 5.14178 33593 ft 428 kts 322°
2026-05-05 07:08 50.46771 5.11634 33214 ft 422 kts 322°
2026-05-05 07:08 50.49213 5.09104 32755 ft 418 kts 322°
2026-05-05 07:09 50.51631 5.06592 32306 ft 415 kts 322°
2026-05-05 07:09 50.54026 5.04101 31865 ft 412 kts 322°
2026-05-05 07:09 50.56405 5.01622 31427 ft 409 kts 322°
2026-05-05 07:09 50.58767 4.99160 30994 ft 406 kts 322°
2026-05-05 07:10 50.61110 4.96715 30567 ft 403 kts 322°
2026-05-05 07:10 50.63411 4.94315 30149 ft 400 kts 322°
2026-05-05 07:10 50.65672 4.91825 29731 ft 395 kts 318°
2026-05-05 07:10 50.67754 4.89038 29321 ft 390 kts 313°
2026-05-05 07:11 50.69675 4.86077 28905 ft 387 kts 310°
2026-05-05 07:11 50.71573 4.83078 28484 ft 385 kts 311°
2026-05-05 07:11 50.73470 4.80110 28065 ft 383 kts 311°
2026-05-05 07:11 50.75359 4.77151 27646 ft 382 kts 311°
2026-05-05 07:12 50.77194 4.74303 27237 ft 380 kts 311°
2026-05-05 07:12 50.79048 4.71407 26822 ft 379 kts 311°
2026-05-05 07:12 50.80933 4.68445 26399 ft 377 kts 311°
2026-05-05 07:12 50.82766 4.65555 25985 ft 375 kts 311°
2026-05-05 07:13 50.84601 4.62656 25570 ft 374 kts 312°
2026-05-05 07:13 50.86443 4.59746 25151 ft 372 kts 312°
2026-05-05 07:13 50.88270 4.56858 24735 ft 371 kts 311°
2026-05-05 07:13 50.89984 4.53837 24320 ft 367 kts 306°
2026-05-05 07:14 50.91470 4.50574 23900 ft 364 kts 301°
2026-05-05 07:14 50.92823 4.47188 23482 ft 363 kts 300°
2026-05-05 07:14 50.94155 4.43798 23065 ft 361 kts 299°
2026-05-05 07:14 50.95468 4.40418 22651 ft 360 kts 299°
2026-05-05 07:15 50.96751 4.37095 22244 ft 358 kts 299°
2026-05-05 07:15 50.98047 4.33728 21831 ft 357 kts 299°
2026-05-05 07:15 50.99281 4.30512 21437 ft 356 kts 299°
2026-05-05 07:15 51.00575 4.27136 21025 ft 354 kts 299°
2026-05-05 07:16 51.01854 4.23794 20617 ft 353 kts 299°
2026-05-05 07:16 51.03123 4.20472 20210 ft 351 kts 299°
2026-05-05 07:16 51.04389 4.17157 19804 ft 350 kts 300°
2026-05-05 07:16 51.05648 4.13860 19400 ft 349 kts 300°
2026-05-05 07:17 51.06883 4.10623 19001 ft 347 kts 300°
2026-05-05 07:17 51.08135 4.07353 18598 ft 346 kts 301°
2026-05-05 07:17 51.09567 4.04273 18195 ft 346 kts 309°
2026-05-05 07:17 51.11269 4.01590 17795 ft 345 kts 317°
2026-05-05 07:18 51.13144 3.99202 17391 ft 345 kts 322°
2026-05-05 07:18 51.15084 3.96959 16990 ft 344 kts 323°
2026-05-05 07:18 51.17015 3.94710 16590 ft 342 kts 322°
2026-05-05 07:18 51.18919 3.92456 16193 ft 341 kts 322°
2026-05-05 07:19 51.20790 3.90233 15806 ft 339 kts 322°
2026-05-05 07:19 51.22783 3.88244 15414 ft 338 kts 334°
2026-05-05 07:19 51.25017 3.87127 15030 ft 338 kts 348°
2026-05-05 07:19 51.27343 3.86701 14630 ft 337 kts 356°
2026-05-05 07:20 51.29696 3.86678 14232 ft 336 kts
2026-05-05 07:20 51.32024 3.86738 13841 ft 335 kts 359°
2026-05-05 07:20 51.34349 3.86722 13449 ft 333 kts 359°
2026-05-05 07:20 51.36427 3.86674 13099 ft 332 kts 358°
2026-05-05 07:21 51.38704 3.86619 12718 ft 330 kts 359°
2026-05-05 07:21 51.40983 3.86971 12328 ft 329 kts 13°
2026-05-05 07:21 51.41723 3.87313 12203 ft 329 kts 18°
2026-05-05 07:21 51.42422 3.87747 12076 ft 329 kts 22°
2026-05-05 07:22 51.44439 3.89480 11678 ft 328 kts 31°
2026-05-05 07:22 51.46270 3.91508 11287 ft 310 kts 36°
2026-05-05 07:22 51.47956 3.93559 10932 ft 303 kts 37°
2026-05-05 07:22 51.49648 3.95578 10574 ft 301 kts 36°
2026-05-05 07:23 51.51319 3.97549 10222 ft 298 kts 36°
2026-05-05 07:23 51.52970 3.99489 10035 ft 289 kts 36°
2026-05-05 07:23 51.54542 4.01334 9964 ft 277 kts 35°
2026-05-05 07:23 51.56082 4.03140 9759 ft 272 kts 35°
2026-05-05 07:24 51.57606 4.04927 9453 ft 270 kts 35°
2026-05-05 07:24 51.59120 4.06703 9146 ft 269 kts 35°
2026-05-05 07:24 51.60628 4.08471 8837 ft 268 kts 35°
2026-05-05 07:24 51.62136 4.10242 8525 ft 267 kts 35°
2026-05-05 07:25 51.63614 4.11977 8217 ft 266 kts 35°
2026-05-05 07:25 51.65124 4.13751 7899 ft 265 kts 35°
2026-05-05 07:25 51.66605 4.15492 7586 ft 264 kts 35°
2026-05-05 07:25 51.67592 4.16653 7374 ft 263 kts 35°
2026-05-05 07:26 51.67782 4.16876 7333 ft 263 kts 35°
2026-05-05 07:26 51.69267 4.18622 7015 ft 262 kts 36°
2026-05-05 07:26 51.70735 4.20348 6696 ft 262 kts 36°
2026-05-05 07:26 51.72318 4.21766 6360 ft 260 kts 15°
2026-05-05 07:27 51.74045 4.21703 6092 ft 258 kts 342°
2026-05-05 07:27 51.75532 4.20119 5739 ft 261 kts 315°
2026-05-05 07:27 51.76620 4.17790 5575 ft 259 kts 304°
2026-05-05 07:27 51.76924 4.16988 5526 ft 259 kts 302°
2026-05-05 07:28 51.77306 4.15917 5462 ft 259 kts 301°
2026-05-05 07:28 51.78146 4.13380 5314 ft 259 kts 299°
2026-05-05 07:28 51.78993 4.10817 5167 ft 259 kts 300°
2026-05-05 07:28 51.79857 4.08267 5020 ft 258 kts 301°
2026-05-05 07:29 51.80728 4.05735 4874 ft 258 kts 301°
2026-05-05 07:29 51.81599 4.03216 4729 ft 257 kts 301°
2026-05-05 07:29 51.82475 4.00696 4585 ft 257 kts 301°
2026-05-05 07:29 51.83348 3.98186 4437 ft 256 kts 301°
2026-05-05 07:30 51.84212 3.95707 4298 ft 256 kts 302°
2026-05-05 07:30 51.86475 3.91498 3976 ft 249 kts 341°
2026-05-05 07:30 51.88142 3.91385 3881 ft 239 kts 17°
2026-05-05 07:31 51.89473 3.92900 3865 ft 239 kts 53°
2026-05-05 07:31 51.89980 3.95435 3760 ft 246 kts 88°
2026-05-05 07:31 51.89462 3.98084 3640 ft 253 kts 119°
2026-05-05 07:31 51.88370 4.00343 3511 ft 256 kts 128°
2026-05-05 07:32 51.87248 4.02579 3371 ft 255 kts 121°
2026-05-05 07:32 51.86510 4.05099 3242 ft 249 kts 104°
2026-05-05 07:32 51.86279 4.07006 3152 ft 245 kts 93°
2026-05-05 07:33 51.86244 4.09716 3070 ft 236 kts 86°
2026-05-05 07:33 51.86314 4.12298 3024 ft 223 kts 85°
2026-05-05 07:33 51.86358 4.14332 2965 ft 212 kts 85°
2026-05-05 07:34 51.86392 4.16649 2860 ft 200 kts 85°
2026-05-05 07:34 51.86424 4.18823 2752 ft 189 kts 85°
2026-05-05 07:34 51.86535 4.20842 2630 ft 176 kts 72°
2026-05-05 07:34 51.87064 4.22561 2523 ft 164 kts 56°
2026-05-05 07:35 51.87689 4.24034 2334 ft 160 kts 54°
2026-05-05 07:35 51.88296 4.25504 2170 ft 155 kts 55°
2026-05-05 07:35 51.88884 4.26963 2089 ft 155 kts 56°
2026-05-05 07:35 51.89471 4.28430 2003 ft 155 kts 56°
2026-05-05 07:36 51.90051 4.29883 1924 ft 151 kts 56°
2026-05-05 07:36 51.90615 4.31298 1774 ft 152 kts 56°
2026-05-05 07:36 51.91187 4.32732 1534 ft 148 kts 56°
2026-05-05 07:36 51.91729 4.34090 1314 ft 140 kts 56°
2026-05-05 07:37 51.92254 4.35403 1143 ft 142 kts 55°
2026-05-05 07:37 51.92802 4.36732 931 ft 141 kts 56°
2026-05-05 07:37 51.93332 4.38061 734 ft 140 kts 57°
2026-05-05 07:37 51.93852 4.39389 523 ft 140 kts 56°
2026-05-05 07:38 51.94371 4.40714 350 ft 137 kts 56°
2026-05-05 07:38 51.94873 4.42015 140 ft 133 kts 54°
2026-05-05 07:38 51.95362 4.43201 -3 ft 118 kts 55°
2026-05-05 07:38 51.95747 4.44157 -7 ft 81 kts 58°
2026-05-05 07:39 51.95993 4.44789 -7 ft 54 kts 57°
2026-05-05 07:39 51.96153 4.45199 -7 ft 30 kts 70°
2026-05-05 07:39 51.96067 4.45407 -7 ft 23 kts 184°
2026-05-05 07:39 51.95969 4.45222 -7 ft 24 kts 240°
2026-05-05 07:40 51.95901 4.45044 -7 ft 15 kts 237°
2026-05-05 07:40 51.95831 4.44870 -7 ft 21 kts 237°
2026-05-05 07:40 51.95765 4.44707 -7 ft 7 kts 236°
2026-05-05 07:40 51.95719 4.44597 -7 ft 20 kts 236°
2026-05-05 07:41 51.95627 4.44365 -7 ft 27 kts 237°
2026-05-05 07:41 51.95532 4.44128 -7 ft 22 kts 239°
2026-05-05 07:41 51.95444 4.43901 -7 ft 26 kts 238°
2026-05-05 07:41 51.95365 4.43703 -7 ft 15 kts 239°
2026-05-05 07:42 51.95322 4.43598 -7 ft 12 kts 236°
2026-05-05 07:42 51.95290 4.43520 -7 ft 11 kts 236°
2026-05-05 07:42 51.95234 4.43447 -7 ft 10 kts 186°
2026-05-05 07:42 51.95185 4.43469 -7 ft 9 kts 147°
2026-05-05 07:43 51.95139 4.43520 -7 ft 7 kts 146°
2026-05-05 07:43 51.95105 4.43546 -7 ft 6 kts 183°
2026-05-05 07:43 51.95073 4.43485 -7 ft 6 kts 237°
2026-05-05 07:43 51.95074 4.43408 -7 ft 9 kts 317°
2026-05-05 07:44 51.95103 4.43376 -7 ft 0 kts 326°
2026-05-05 07:44 51.95103 4.43375 -7 ft 0 kts 326°
2026-05-05 07:46 51.95104 4.43375 -7 ft 0 kts 326°
2026-05-05 07:46 51.95104 4.43374 -7 ft 0 kts 326°
2026-05-05 07:48 51.95105 4.43373 -7 ft 0 kts 326°